MORELOS 3

导读 | 星芒AI

MORELOS 3 是墨西哥的第三代通信卫星,由劳拉空间系统公司制造,于1997年发射。该卫星主要用于提供国内和国际的固定和移动通信服务,支持电话、电视和互联网传输。MORELOS 3 运行在地球静止轨道上,覆盖范围广泛,增强了墨西哥的通信基础设施,促进了信息和通信技术的发展。

基本信息
目录编号:
40946
目录名称:
MORELOS 3
国际标识:
2015-056A
轨道中心:
EARTH
卫星名称:
MORELOS 3
卫星全名:
--
卫星状态:
在轨 (已飞行3683 天)
发射日期:
2015-10-02 UTC
国别 :
(MX)
星等 :
--
轨道信息
数据来源 国际轨道数据 AOE轨道数据
星历时间 2025-10-31T23:51:25+0800
11小时前
查看轨道信息
2025-10-31T12:00:00+0800
23小时前
查看轨道信息
半长轴 42164.756km 42164.812km
偏心率 0.0002847 0.0002826
轨道倾角 3.039° 3.038°
近地点辐角 181.485° 183.423°
升交点赤经 8.322° 8.304°
平近点角 335.169° 154.912°
近地点 35774.616km 35774.761km
远地点 35798.626km 35798.593km
周期 1436.098分钟 1436.101分钟
每日圈数 1.002717 1.002715
详细信息
使用方式:
暂无
2D轨道图
3D轨道图
轨道高度分析图
轨道倾角分析图
轨道综合分析图
查看轨道综合分析图